TimeMDT,TemperatureF,Dew PointF,Humidity,Sea Level PressureIn,VisibilityMPH,Wind Direction,Wind SpeedMPH,Gust SpeedMPH,PrecipitationIn,Events,Conditions,WindDirDegrees,DateUTC
12:15 AM,48.2,26.6,43,30.17,10.0,SW,4.6,-,N/A,,Clear,230,2013-05-10 06:15:00
12:35 AM,44.6,26.6,49,30.16,10.0,SSW,4.6,-,N/A,,Clear,210,2013-05-10 06:35:00
12:55 AM,46.4,26.6,46,30.15,10.0,SSW,5.8,-,N/A,,Clear,200,2013-05-10 06:55:00
1:15 AM,46.4,24.8,43,30.15,10.0,Calm,Calm,-,N/A,,Clear,0,2013-05-10 07:15:00
1:35 AM,44.6,26.6,49,30.15,10.0,Calm,Calm,-,N/A,,Clear,0,2013-05-10 07:35:00
1:55 AM,42.8,24.8,49,30.14,10.0,Calm,Calm,-,N/A,,Clear,0,2013-05-10 07:55:00
2:15 AM,42.8,26.6,53,30.12,10.0,South,4.6,-,N/A,,Clear,180,2013-05-10 08:15:00
2:35 AM,41.0,26.6,57,30.13,10.0,SSW,3.5,-,N/A,,Clear,210,2013-05-10 08:35:00
2:55 AM,39.2,24.8,56,30.13,10.0,Calm,Calm,-,N/A,,Clear,0,2013-05-10 08:55:00
3:15 AM,39.2,26.6,61,30.12,10.0,South,4.6,-,N/A,,Clear,180,2013-05-10 09:15:00
3:35 AM,39.2,26.6,61,30.12,10.0,South,4.6,-,N/A,,Clear,190,2013-05-10 09:35:00
4:15 AM,37.4,28.4,70,30.10,10.0,South,8.1,-,N/A,,Clear,190,2013-05-10 10:15:00
4:35 AM,37.4,28.4,70,30.09,10.0,SSW,8.1,-,N/A,,Clear,210,2013-05-10 10:35:00
4:55 AM,39.2,28.4,65,30.09,10.0,SSW,6.9,-,N/A,,Clear,210,2013-05-10 10:55:00
5:15 AM,41.0,28.4,61,30.09,10.0,Calm,Calm,-,N/A,,Clear,0,2013-05-10 11:15:00
5:35 AM,39.2,28.4,65,30.08,10.0,Calm,Calm,-,N/A,,Clear,0,2013-05-10 11:35:00
6:15 AM,39.2,32.0,75,30.07,10.0,South,8.1,-,N/A,,Clear,190,2013-05-10 12:15:00
6:35 AM,42.8,33.8,70,30.08,10.0,South,8.1,-,N/A,,Scattered Clouds,190,2013-05-10 12:35:00
7:35 AM,48.2,35.6,62,30.09,9.0,South,5.8,-,N/A,,Scattered Clouds,180,2013-05-10 13:35:00
7:55 AM,48.2,37.4,66,30.10,5.0,SSE,5.8,-,N/A,,Mostly Cloudy,160,2013-05-10 13:55:00
8:15 AM,51.8,37.4,58,30.10,7.0,South,5.8,-,N/A,,Partly Cloudy,180,2013-05-10 14:15:00
8:35 AM,55.4,41.0,58,30.12,3.0,NW,11.5,18.4,N/A,,Scattered Clouds,310,2013-05-10 14:35:00
8:55 AM,60.8,42.8,52,30.12,6.0,NW,18.4,23.0,N/A,,Scattered Clouds,310,2013-05-10 14:55:00
9:35 AM,60.8,37.4,42,30.13,3.0,NNW,19.6,-,N/A,,Partly Cloudy,340,2013-05-10 15:35:00
10:15 AM,59.0,37.4,45,30.15,7.0,NNW,24.2,28.8,N/A,,Mostly Cloudy,340,2013-05-10 16:15:00
10:35 AM,60.8,39.2,45,30.17,2.0,NNW,25.3,33.4,N/A,,Overcast,340,2013-05-10 16:35:00
11:15 AM,57.2,37.4,48,30.21,10.0,NNW,20.7,29.9,N/A,,Scattered Clouds,340,2013-05-10 17:15:00
11:35 AM,57.2,35.6,44,30.22,5.0,North,23.0,31.1,N/A,,Mostly Cloudy,350,2013-05-10 17:35:00
11:55 AM,57.2,35.6,44,30.23,3.0,NNW,20.7,26.5,N/A,,Mostly Cloudy,340,2013-05-10 17:55:00
12:15 PM,57.2,33.8,41,30.23,7.0,North,25.3,29.9,N/A,,Mostly Cloudy,350,2013-05-10 18:15:00
12:35 PM,57.2,32.0,38,30.23,7.0,NNW,27.6,33.4,N/A,,Mostly Cloudy,340,2013-05-10 18:35:00
12:55 PM,57.2,30.2,36,30.23,10.0,NNW,20.7,26.5,N/A,,Mostly Cloudy,340,2013-05-10 18:55:00
1:15 PM,60.8,30.2,31,30.24,4.0,NNW,24.2,29.9,N/A,,Mostly Cloudy,340,2013-05-10 19:15:00
1:35 PM,59.0,24.8,27,30.25,3.0,North,20.7,26.5,N/A,,Mostly Cloudy,350,2013-05-10 19:35:00
1:55 PM,60.8,26.6,27,30.25,4.0,North,20.7,26.5,N/A,,Mostly Cloudy,360,2013-05-10 19:55:00
2:15 PM,60.8,24.8,25,30.25,5.0,NNW,23.0,28.8,N/A,,Partly Cloudy,340,2013-05-10 20:15:00
2:35 PM,62.6,24.8,24,30.26,2.5,North,23.0,29.9,N/A,,Clear,350,2013-05-10 20:35:00
2:55 PM,-9999,-9999,N/A,30.26,5.0,North,20.7,28.8,N/A,,Clear,360,2013-05-10 20:55:00
3:15 PM,-9999,-9999,N/A,30.26,8.0,North,23.0,28.8,N/A,,Clear,360,2013-05-10 21:15:00
3:35 PM,62.6,24.8,24,30.26,10.0,NNW,23.0,29.9,N/A,,Clear,340,2013-05-10 21:35:00
4:15 PM,62.6,24.8,24,30.27,3.0,North,17.3,27.6,N/A,,Clear,360,2013-05-10 22:15:00
4:35 PM,62.6,24.8,24,30.27,5.0,NNW,16.1,27.6,N/A,,Clear,340,2013-05-10 22:35:00
4:55 PM,62.6,23.0,22,30.28,4.0,NNW,19.6,26.5,N/A,,Clear,340,2013-05-10 22:55:00
5:15 PM,60.8,23.0,23,30.28,3.0,NNW,17.3,27.6,N/A,,Clear,340,2013-05-10 23:15:00
5:35 PM,60.8,21.2,22,30.28,10.0,North,18.4,27.6,N/A,,Clear,350,2013-05-10 23:35:00
5:55 PM,60.8,21.2,22,30.29,10.0,NNW,19.6,26.5,N/A,,Clear,330,2013-05-10 23:55:00
6:15 PM,60.8,21.2,22,30.29,10.0,North,19.6,27.6,N/A,,Clear,350,2013-05-11 00:15:00
6:35 PM,59.0,21.2,23,30.29,10.0,North,20.7,24.2,N/A,,Clear,360,2013-05-11 00:35:00
6:55 PM,57.2,21.2,25,30.29,10.0,North,16.1,-,N/A,,Clear,350,2013-05-11 00:55:00
7:15 PM,57.2,21.2,25,30.30,5.0,North,16.1,19.6,N/A,,Clear,360,2013-05-11 01:15:00
7:35 PM,57.2,21.2,25,30.31,3.0,North,10.4,-,N/A,,Clear,360,2013-05-11 01:35:00
7:55 PM,55.4,21.2,26,30.32,8.0,North,10.4,16.1,N/A,,Clear,350,2013-05-11 01:55:00
8:15 PM,53.6,21.2,28,30.32,7.0,North,9.2,-,N/A,,Clear,360,2013-05-11 02:15:00
8:55 PM,46.4,23.0,40,30.34,10.0,NNW,9.2,-,N/A,,Clear,330,2013-05-11 02:55:00
9:15 PM,46.4,21.2,37,30.34,10.0,NW,8.1,-,N/A,,Clear,320,2013-05-11 03:15:00
9:35 PM,44.6,19.4,37,30.35,10.0,NW,8.1,-,N/A,,Clear,320,2013-05-11 03:35:00
9:55 PM,44.6,19.4,37,30.35,10.0,NW,8.1,-,N/A,,Clear,310,2013-05-11 03:55:00
10:15 PM,42.8,19.4,39,30.36,10.0,WNW,6.9,-,N/A,,Clear,300,2013-05-11 04:15:00
10:35 PM,41.0,19.4,42,30.36,10.0,WNW,9.2,-,N/A,,Clear,300,2013-05-11 04:35:00
10:55 PM,41.0,21.2,45,30.37,10.0,NW,10.4,-,N/A,,Clear,310,2013-05-11 04:55:00
11:15 PM,44.6,21.2,39,30.38,10.0,NNW,12.7,-,N/A,,Clear,330,2013-05-11 05:15:00
11:35 PM,42.8,21.2,42,30.39,10.0,NNW,10.4,-,N/A,,Clear,340,2013-05-11 05:35:00
11:55 PM,42.8,24.8,49,30.40,10.0,North,6.9,-,N/A,,Clear,350,2013-05-11 05:55:00